Zurück zum Katalog

CZ-3A DEB

LostGTO
NORAD 35566·DEBRIS·🇨🇳 China

Gestartet Feb 2, 2007 von Xichang Satellite Launch Center

Loading…

TLE

VeraltetSource: Space-Track

Epoche: Jul 21, 2011, 04:12 UTC

1 35566U 07003AA  11202.17539352  .00000757  00000-0  90005-2 0  9991
2 35566  25.9666 267.8670 7526047 228.3160  54.8272  1.86656702 20382

Verfolge CZ-3A DEB in Echtzeit mit AllMySat

Download on the App Store